#timestamp,LO_Frequency,Hit,StdDev 
1541822415.7,286047002.6,N
1541822435.5,286047000.5,N
1541822455.4,286046998.4,N
1541822475.2,286046997.1,N
1541822495.1,286046996.7,N
1541822496.0,286046996.7,N
1541822515.8,286046997.6,N
1541822535.6,286046995.8,N
1541822555.5,286046996.0,N
1541822575.3,286046993.6,N
1541822595.1,286046994.4,N
1541822615.9,286046992.4,N
1541822635.7,286046993.7,N
1541822655.6,286046999.4,N
1541822675.4,286047000.6,N
1541822695.2,286046998.9,N
1541822715.1,286046999.0,N
1541822716.0,286046999.0,N
1541822735.8,286046997.0,N
1541822755.7,286046997.3,N
1541822775.5,286046998.1,N
1541822795.3,286047000.7,N
1541822815.2,286047000.4,N
1541822835.9,286047000.5,N
1541822855.7,286047000.8,N
1541822875.6,286046999.0,N
1541822895.4,286046998.2,N
1541822915.2,286047000.8,N
1541822935.1,286047001.1,N
1541822936.0,286047001.1,N
1541822955.8,286047000.9,N
1541822975.7,286046998.7,N
1541822995.5,286046999.4,N
1541823015.3,286046998.5,N
1541823035.2,286047000.9,N
1541823055.0,286046999.5,N
1541823055.9,286046999.5,N
1541823075.8,286046997.4,N
1541823095.6,286046996.7,N
1541823115.4,286046999.1,N
1541823135.3,286046995.0,N
1541823155.1,286046996.2,N
1541823156.0,286046996.2,N
1541823175.8,286046996.1,N
1541823195.7,286046995.3,N
1541823215.5,286046991.7,Y
1541823235.4,286046996.1,P
1541823255.2,286046996.2,N
1541823275.0,286046993.5,P
1541823275.9,286046993.5,Y
1541823295.8,286046998.8,P
1541823315.6,286047001.1,N
1541823335.4,286046998.9,N
1541823355.3,286046998.3,N
1541823375.1,286046996.5,N
1541823395.9,286046996.7,N
1541823415.7,286046996.7,N
1541823435.5,286046999.0,N
1541823455.4,286046996.6,N
1541823475.2,286046999.1,N
1541823495.0,286046996.7,N
1541823495.9,286046996.7,N
1541823515.8,286046996.8,N
1541823535.6,286046995.0,Y
1541823555.5,286046997.3,P
1541823575.3,286046995.3,P
1541823595.1,286046995.3,P
1541823615.9,286046995.7,Y
1541823635.7,286046998.7,P
1541823655.5,286046999.7,N
1541823675.4,286047003.3,N
1541823695.2,286047008.6,Y
1541823715.1,286047014.0,P
1541823716.0,286047014.0,N
1541823735.8,286047012.9,N
1541823755.6,286047013.4,N
1541823775.5,286047013.6,N
1541823795.3,286047013.5,N
1541823815.1,286047013.9,N
1541823835.9,286047014.0,N
1541823855.7,286047010.0,N
1541823875.6,286047008.7,N
1541823895.4,286047006.3,N
1541823915.2,286047007.5,N
1541823935.1,286047005.4,N
1541823936.0,286047005.4,N
1541823955.8,286047005.8,N
1541823975.6,286047005.7,N
1541823995.5,286047005.1,N
1541824015.3,286047010.7,N
1541824035.2,286047010.9,N
1541824055.9,286047018.7,Y
1541824075.7,286047009.6,P
1541824095.6,286047009.9,P
1541824115.4,286047007.7,P
1541824135.3,286047007.9,Y
1541824155.1,286046998.8,P
1541824156.0,286046998.8,N
1541824175.8,286046997.1,N
1541824195.7,286046995.0,N
1541824215.5,286046996.4,N
1541824235.3,286046996.3,N
1541824255.2,286046993.3,N
1541824275.0,286046996.4,N
1541824275.9,286046996.4,N
1541824295.8,286046993.9,N
1541824315.6,286046992.4,N
1541824335.4,286046992.1,N
1541824355.3,286046993.2,N
1541824375.1,286046992.2,N
1541824395.9,286046992.5,N
1541824415.7,286046990.1,N
1541824435.5,286046990.4,N
1541824455.4,286046994.8,N
1541824475.2,286046999.6,N
1541824495.0,286046998.1,N
1541824495.9,286046998.1,N
1541824515.8,286047000.7,N
1541824535.6,286046998.9,N
1541824555.5,286046996.9,N
1541824575.3,286046996.7,N
1541824595.1,286046995.7,N
1541824615.9,286046996.0,N
1541824635.7,286046995.4,N
1541824655.5,286046999.6,N
1541824675.4,286046996.6,N
1541824695.2,286046998.0,N
1541824715.0,286046997.1,N
1541824715.9,286046997.1,N
1541824735.8,286047000.9,N
1541824755.6,286047002.6,N
1541824775.5,286047000.4,N
1541824795.3,286047000.7,N
1541824815.1,286047001.2,N
1541824835.9,286046998.5,N
1541824855.7,286046999.6,N
1541824875.5,286046999.2,N
1541824895.4,286046998.9,N
1541824915.2,286046999.1,N
1541824935.1,286046998.8,N
1541824936.0,286046998.8,N
1541824955.8,286046999.6,N
1541824975.6,286046999.2,N
1541824995.5,286046999.2,N
1541825015.3,286046999.0,N
1541825035.1,286046996.5,N
1541825055.9,286046996.7,N
1541825075.7,286046996.5,N
1541825095.6,286046996.9,N
1541825115.4,286046997.3,N
1541825135.2,286046994.9,N
1541825155.1,286046995.9,N
1541825156.0,286046995.9,N
1541825175.8,286046995.5,N
1541825195.6,286046995.7,N
1541825215.5,286046995.5,N
1541825235.3,286046995.5,N
1541825255.2,286046994.9,N
1541825275.9,286046998.8,N
1541825295.7,286047000.9,N
1541825315.6,286047002.6,N
1541825335.4,286047004.2,N
1541825355.2,286047002.4,N
1541825375.1,286047001.8,N
1541825376.0,286047001.8,N
1541825395.8,286047002.1,N
1541825415.7,286047001.5,N
1541825435.5,286047000.1,N
1541825455.3,286047000.6,N
1541825475.2,286046998.2,N
1541825495.9,286046998.3,N
1541825515.7,286046999.2,N
1541825535.6,286046999.3,N
1541825555.4,286046999.0,N
1541825575.2,286046997.2,N
1541825595.1,286046996.0,N
1541825596.0,286046996.0,N
1541825615.8,286046993.7,N
1541825635.7,286046992.2,N
1541825655.5,286046993.1,N
1541825675.3,286046991.6,N
1541825695.2,286046989.4,Y
1541825715.0,286046991.2,P
1541825715.9,286046991.2,N
1541825735.8,286046989.0,P
1541825755.6,286046989.7,Y
1541825775.4,286046995.3,P
1541825795.3,286046993.7,P
1541825815.1,286046994.1,P
1541825835.8,286046994.0,Y
1541825855.7,286046998.9,P
1541825875.5,286046998.6,N
1541825895.4,286046996.5,N
1541825915.2,286046997.3,N
1541825935.0,286046997.1,N
1541825935.9,286046997.1,N
1541825955.8,286046999.5,N
1541825975.6,286046994.9,Y
1541825995.4,286047001.0,P
